Flag for Germany Weather past 2 weeks in Nuremberg, Bavaria, Germany

Now
37 °F

Light rain. Partly sunny.


Feels Like: 30 °F
Forecast: 29 / 45 °F
Wind: 12 mph from Southwest

Location: Nuernberg

Current Time: Apr 2, 2015 at 9:58:41 AM

Latest Report: Apr 2, 2015 at 9:20 AM


Visibility: N/A

Pressure: 29.80 "Hg

Humidity: 87%

Dew point: 34 °F

Location of NurembergLocation

Historic Weather in Nuremberg — Graph

°F

Nuremberg temperature yesterday

Maximum temperature yesterday: 45 °F (at 2:20 PM)
Minimum temperature yesterday: 34 °F (at 5:20 AM)
Average temperature yesterday: 38 °F

Past Weeks' High & Low Weather Summary

 TemperatureHumidityPressure
High64 °F (Mar 25, 12:20 PM)100% (Mar 24, 5:20 AM)30.27 "Hg (Mar 24, 5:20 AM)
Low27 °F (Mar 21, 2:20 AM)21% (Mar 20, 4:20 PM)29.42 "Hg (Mar 29, 11:50 PM)
Average44 °F71%29.93 "Hg
* Reported Mar 18 7:20 AM — Apr 2 8:20 AM, Nuremberg, Weather by CustomWeather, © 2015

Note: Actual official high and low records may vary slightly from our data, if they occured in-between our weather recording intervals... More about our weather records

Advertising

Nuremberg weather history for previous 24 hours

 ConditionsComfort  
Time TempWeatherWind HumidityBarometerVisibility
8:20 AM
Thu, Apr 2
37 °FDrizzle. Partly sunny.14 mph87%29.83 "HgN/A
7:50 AM37 °FDrizzle. Mostly cloudy.15 mph87%29.86 "HgN/A
7:20 AM37 °FLight rain. Partly cloudy.14 mph87%29.86 "HgN/A
6:50 AM37 °FLight rain. Passing clouds.18 mph87%29.89 "HgN/A
6:20 AM37 °FLight rain. Passing clouds.22 mph87%29.89 "HgN/A
5:50 AM39 °FLight rain. Passing clouds.23 mph75%29.89 "HgN/A
5:20 AM39 °FPassing clouds.16 mph70%29.92 "HgN/A
4:50 AM39 °FClear.18 mph75%29.95 "Hg10 mi
4:20 AM39 °FPassing clouds.16 mph75%29.95 "HgN/A
3:50 AM37 °FClear.14 mph81%29.98 "Hg10 mi
3:20 AM37 °FClear.14 mph81%30.01 "Hg10 mi
2:50 AM37 °FClear.15 mph81%30.01 "Hg10 mi
2:20 AM37 °FClear.15 mph81%30.04 "Hg10 mi
1:50 AM37 °FClear.10 mph81%30.04 "Hg10 mi
1:20 AM37 °FClear.14 mph81%30.04 "Hg10 mi
12:50 AM36 °FPassing clouds.7 mph87%30.07 "HgN/A
12:20 AM34 °FPassing clouds.3 mph87%30.07 "HgN/A
11:50 PM
Wed, Apr 1
34 °FPassing clouds.3 mph93%30.07 "HgN/A
11:20 PM34 °FClear.6 mph93%30.09 "Hg10 mi
10:50 PM36 °FPassing clouds.13 mph87%30.09 "HgN/A
10:20 PM36 °FSnow flurries. Passing clouds.20 mph87%30.09 "HgN/A
9:50 PM34 °FSnow flurries. Partly cloudy.7 mph93%30.09 "Hg4 mi
9:20 PM34 °FPassing clouds.12 mph93%30.07 "HgN/A
8:50 PM34 °FSprinkles. Passing clouds.15 mph93%30.09 "Hg4 mi
8:20 PM37 °FSprinkles. Broken clouds.8 mph81%30.07 "HgN/A
7:50 PM37 °FScattered clouds.12 mph87%30.07 "HgN/A
7:20 PM37 °FScattered clouds.17 mph81%30.04 "HgN/A
6:50 PM36 °FSprinkles. Broken clouds.15 mph93%30.04 "HgN/A
6:20 PM37 °FSprinkles. Scattered clouds.18 mph87%30.04 "HgN/A
5:50 PM36 °FScattered clouds.20 mph93%30.04 "HgN/A
5:20 PM37 °FScattered clouds.13 mph87%30.04 "HgN/A
4:50 PM39 °FScattered clouds.10 mph75%30.04 "HgN/A
4:20 PM43 °FScattered clouds.24 mph66%30.01 "HgN/A
3:50 PM45 °FSprinkles. Scattered clouds.9 mph66%30.01 "HgN/A
3:20 PM37 °FSprinkles. Scattered clouds.14 mph87%30.01 "HgN/A
2:50 PM43 °FSprinkles. Scattered clouds.24 mph61%30.01 "HgN/A
2:20 PM45 °FScattered clouds.18 mph61%30.01 "HgN/A
1:50 PM43 °FSprinkles. Broken clouds.23 mph61%30.01 "HgN/A
1:20 PM43 °FBroken clouds.24 mph61%30.01 "HgN/A
12:50 PM41 °FSprinkles. Broken clouds.26 mph66%30.01 "HgN/A
12:20 PM39 °FSprinkles. Broken clouds.29 mph70%30.01 "HgN/A
11:50 AM41 °FBroken clouds.22 mph66%30.01 "HgN/A
11:20 AM39 °FSnow flurries. Broken clouds.20 mph70%29.98 "HgN/A
10:50 AM39 °FBroken clouds.20 mph70%29.98 "HgN/A
10:20 AM39 °FSprinkles. Broken clouds.18 mph70%29.95 "HgN/A
9:50 AM39 °FBroken clouds.18 mph70%29.95 "HgN/A
9:20 AM39 °FSprinkles. Broken clouds.17 mph70%29.92 "HgN/A
Weather by CustomWeather, © 2015

See weather overviewHow to use our weather pages